AURA

Last updated on Thu Nov 21 2024 00:02:26 GMT+0000 (Coordinated Universal Time)

1 28376U 04026A 24325.59254217 .00002301 00000+0 49329-3 0 9994 2 28376 98.2695 269.5586 0001099 34.8740 325.2531 14.59623475 82482
UTC large
Height (km)
Speed (km/s)
/
Latitude / Longitude
Inclination (degrees)
Orbital Period (minutes)
Azimuth
Elevation
Range (km)
Doppler Factor

Next 0 passes for location: London (51.5072 / 0.1276)

Sorry there are no passes over London.